User: anonymous   Login
Location: Unspecified
(0.0000°N, 0.0000°E)
Time: 01:50:23
(UTC+00:00)
Language:

STARLINK-11323 [DTC] - Orbit

View from above orbital plane
View from above orbital plane
View from above satellite
View from above satellite

Ground track
Ground track

The orbit is defined by the following mean orbital elements,

1 61533U          26145.57646596 +.00000000 +00000-0 +27102-5 0 00004
2 61533  53.1597 217.2073 0001062 148.6214 211.4867 15.69713842    02
Epoch (UTC): 25 May 2026 13:50:06
Eccentricity: 0.0001062
inclination: 53.1597°
perigee height: 359 km
apogee height: 360 km
right ascension of ascending node: 217.2073°
argument of perigee: 148.6214°
revolutions per day: 15.69713842
mean anomaly at epoch: 211.4867°

The dashed part of the orbit path shows where the satellite is in the earth's shadow,  

DLR